This is the latest recevied weather packets stored in our database for station/object W4MSI. If no packets are shown the sender has not sent any weather packets the latest 10 day(s).
| Time | Temp. | Humidity | Pressure | Rain* | Wind** | Luminosity | Snow |
|---|---|---|---|---|---|---|---|
| 1778114963 | 11.11° C | 91% | 1013.7 hPa | 0 mm | - | 1 W/m² | - |
| 1778114660 | 11.11° C | 91% | 1013.6 hPa | 0 mm | - | 3 W/m² | - |
| 1778114358 | 11.11° C | 90% | 1013.6 hPa | 0 mm | - | 2 W/m² | - |
| 1778114053 | 11.67° C | 89% | 1013 hPa | 0 mm | - | 3 W/m² | - |
| 1778113748 | 11.11° C | 91% | 1013.7 hPa | 0 mm | - | 2 W/m² | - |
| 1778113445 | 11.11° C | 92% | 1013 hPa | 0 mm | - | 2 W/m² | - |
| 1778113142 | 11.11° C | 93% | 1012.9 hPa | 0 mm | - | 3 W/m² | - |
| 1778112839 | 11.67° C | 93% | 1012.9 hPa | 0 mm | - | 9 W/m² | - |
| 1778112536 | 11.67° C | 93% | 1012.8 hPa | 0 mm | - | 16 W/m² | - |
| 1778112231 | 11.67° C | 93% | 1012.8 hPa | 0 mm | - | 11 W/m² | - |
| 1778111927 | 11.67° C | 92% | 1013 hPa | 0 mm | - | 14 W/m² | - |
| 1778111625 | 11.67° C | 93% | 1013.2 hPa | 0 mm | - | 15 W/m² | - |
| 1778111320 | 11.67° C | 93% | 1013.2 hPa | 0 mm | - | 17 W/m² | - |
| 1778111018 | 11.67° C | 93% | 1012.8 hPa | 0 mm | - | 25 W/m² | - |
| 1778110716 | 12.22° C | 93% | 1013.2 hPa | 1.78 mm | - | 29 W/m² | - |
| 1778110411 | 12.22° C | 92% | 1013.7 hPa | 1.78 mm | - | 29 W/m² | - |
| 1778110109 | 12.22° C | 91% | 1013.5 hPa | 0 mm | - | 14 W/m² | - |
| 1778109804 | 12.22° C | 90% | 1013.8 hPa | 0 mm | - | 20 W/m² | - |
| 1778109501 | 12.78° C | 89% | 1014.2 hPa | 0 mm | - | 16 W/m² | - |
| 1778109199 | 12.78° C | 88% | 1014.4 hPa | 0 mm | - | 13 W/m² | - |
| 1778108896 | 12.22° C | 90% | 1014.5 hPa | 0 mm | - | 19 W/m² | - |
| 1778108592 | 12.22° C | 91% | 1014.6 hPa | 0 mm | - | 21 W/m² | - |
| 1778108289 | 12.22° C | 92% | 1014.2 hPa | 0 mm | - | 24 W/m² | - |
| 1778107986 | 12.22° C | 91% | 1013.4 hPa | 0 mm | - | 25 W/m² | - |
| 1778107683 | 12.78° C | 90% | 1013.3 hPa | 0 mm | - | 24 W/m² | - |
* Rain latest hour (hover to see other rain measurements)
** Current wind speed in m/s (hover to see current wind gust speed)